Simultaneous Nadir Overpasses (SNOs) Predictions

Prediction of SNOs between METOP-A and TERRA Satellite Orbit:

Table of predicted SNOs for the next 14.0 days since TLE Epoch: 11/28/2016
Index Date (METOP-A) Time (METOP-A) Lat,Lon (METOP-A) SZA (METOP-A ) Date (TERRA) Time (TERRA) Lat,Lon (TERRA) SZA (TERRA ) Distance(km) Time Diff (sec)
1 11/29/2016 06:58:42 -81.30, -57.63 74.21 11/29/2016 06:59:32 -81.30, -57.58 74.18 0.90 50
2 11/29/2016 07:49:21 81.31, 110.26 105.86 11/29/2016 07:48:58 81.31, 110.15 105.84 1.84 23
3 12/02/2016 02:33:03 -81.30, 8.61 73.83 12/02/2016 02:33:47 -81.29, 8.63 73.81 0.79 44
4 12/02/2016 03:23:42 81.30, 176.46 106.24 12/02/2016 03:23:13 81.29, 176.35 106.21 2.17 29
5 12/04/2016 22:07:24 -81.30, 75.21 73.46 12/04/2016 22:08:02 -81.29, 75.15 73.45 1.24 38
6 12
